Wind from 286 at 2 knots gusting 9

Air temperature 13.9° C
Dewpoint -0.9° C

Last reported at 2014-Apr-16 09:36 UTC.
Time now 2014-Apr-16 10:30 UTC

Location: N 61°53' E 027°53'.
View on Google Maps.

See reports from other nearby stations

Tides Stations Pressure Air Temp Water Temp Dewpoint Dewpoint depression Visibility Wind Speed Wind Dir Waves Ship positions

  
sailing weather and tide predictions

CW9197 Juva FI weather

date/time (UTC)wind fromknots sea level pressurealtimeterstation pressurevisibilityair tempwater tempwave heightnotes
2014-Apr-16 09:36 286 2 gusting 9 13.9
2014-Apr-16 09:26 292 2 gusting 13 9.4
2014-Apr-16 08:56 273 6 gusting 13 7.8
2014-Apr-16 08:46 322 4 gusting 8 6.7
2014-Apr-16 08:14 280 2 gusting 8 8.3
2014-Apr-16 07:54 274 4 gusting 12 8.3
2014-Apr-16 07:24 254 3 gusting 6 6.1
2014-Apr-16 07:04 246 2 gusting 10 6.7
2014-Apr-16 06:54 270 4 gusting 4 7.8
2014-Apr-16 05:12 323 1 gusting 7 6.1
2014-Apr-16 04:52 315 2 gusting 3 5.0
2014-Apr-15 20:26 324 1 gusting 4 1.7
2014-Apr-15 20:16 307 2 gusting 6 2.2
2014-Apr-15 19:45 321 2 gusting 4 2.2
2014-Apr-15 19:25 324 0 gusting 6 2.2
2014-Apr-15 18:35 335 0 gusting 4 2.8
2014-Apr-15 18:25 335 2 gusting 6 2.8
2014-Apr-15 18:15 311 1 gusting 6 2.8
2014-Apr-15 18:05 308 2 gusting 7 3.3
2014-Apr-15 17:45 330 0 gusting 6 3.3
2014-Apr-15 17:15 277 0 gusting 1 3.9
2014-Apr-15 17:05 315 4.4
2014-Apr-15 16:55 012 4.4
2014-Apr-15 16:45 013 1 gusting 3 4.4
2014-Apr-15 16:25 342 1 gusting 4 4.4
2014-Apr-15 16:15 016 1 gusting 7 4.4
2014-Apr-15 16:05 044 1 gusting 11 4.4
2014-Apr-15 15:54 012 2 gusting 6 4.4
2014-Apr-15 15:44 341 0 gusting 6 5.0
2014-Apr-15 15:04 007 0 gusting 3 6.1
2014-Apr-15 14:24 019 2 gusting 7 6.1
2014-Apr-15 13:44 015 2 gusting 11 6.7
2014-Apr-15 13:24 316 4 gusting 11 6.7
2014-Apr-15 12:44 326 0 gusting 7 6.1
2014-Apr-15 12:34 331 3 gusting 6 6.1
2014-Apr-15 12:14 346 2 gusting 6 6.1
2014-Apr-15 12:04 333 1 gusting 4 6.1
2014-Apr-15 11:54 345 1 gusting 8 5.6
2014-Apr-15 11:44 327 3 gusting 7 5.6
2014-Apr-15 11:34 332 3 gusting 8 5.0
2014-Apr-15 11:24 339 3 gusting 6 5.0
2014-Apr-15 11:14 315 2 gusting 8 5.0
2014-Apr-15 10:44 325 4 gusting 6 5.6
2014-Apr-15 10:24 309 5.0
2014-Apr-15 10:14 269 2 gusting 6 5.6
2014-Apr-15 09:54 301 2 gusting 7 5.6
2014-Apr-15 09:34 286 2 gusting 5 5.6
2014-Apr-15 09:24 320 1 gusting 5 5.6
2014-Apr-15 09:04 326 4 gusting 7 5.0
2014-Apr-15 08:44 326 3 gusting 6 4.4
2014-Apr-15 08:24 276 3 gusting 8 4.4
2014-Apr-15 08:14 278 1 gusting 4 4.4
2014-Apr-15 08:04 310 2 gusting 7 4.4
2014-Apr-15 07:54 332 1 gusting 6 3.9
2014-Apr-15 06:24 337 0 gusting 2 3.9
2014-Apr-15 06:03 316 1 gusting 6 3.9
2014-Apr-15 05:33 336 0 gusting 4 3.3
2014-Apr-14 20:09 202 3.9
2014-Apr-14 19:49 202 0 gusting 2 3.9
2014-Apr-14 19:09 202 3.9
2014-Apr-14 18:59 197 3.9
2014-Apr-14 18:49 180 3.9
2014-Apr-14 18:29 202 3.9
2014-Apr-14 18:19 202 3.9
2014-Apr-14 18:09 202 3.9
2014-Apr-14 17:39 165 1 gusting 2 4.4
2014-Apr-14 17:29 174 1 gusting 3 4.4
2014-Apr-14 16:49 111 5.0
2014-Apr-14 16:39 223 1 gusting 2 5.0
2014-Apr-14 16:19 254 1 gusting 6 5.6
2014-Apr-14 16:09 261 1 gusting 5 5.6
2014-Apr-14 15:59 220 1 gusting 3 5.6
2014-Apr-14 15:49 175 1 gusting 3 5.6
2014-Apr-14 15:39 182 2 gusting 4 5.6
2014-Apr-14 15:29 190 1 gusting 4 6.1
2014-Apr-14 15:19 191 1 gusting 4 6.1
2014-Apr-14 15:09 172 1 gusting 5 6.1
2014-Apr-14 14:29 218 5 gusting 10 7.2
2014-Apr-14 14:09 203 3 gusting 6 7.8
2014-Apr-14 13:29 187 4 gusting 6 8.9
2014-Apr-14 12:48 198 2 gusting 5 8.3
2014-Apr-14 12:28 189 4 gusting 6 8.3
2014-Apr-14 11:48 180 4 gusting 6 7.8
2014-Apr-14 11:38 186 4 gusting 6 8.3
2014-Apr-14 10:18 199 3 gusting 6 6.7